Regional Weather Roundup
Issued by NWS

Home | Current Version | Previous Version | Text Only | Print | Product List | Glossary Off
Versions: 1 2 3 4 5 6 7 8 9 10 11 12 13 14 15 16 17 18 19 20 21 22 23 24 25 26 27 28 29 30 31 32 33 34 35 36 37 38 39 40 41 42 43 44 45 46 47 48 49 50

000
ASUS43 KBIS 211510
RWRND

NORTH DAKOTA REGIONAL WEATHER ROUNDUP
NATIONAL WEATHER SERVICE BISMARCK ND
900 AM CST SUN DEC 21 2014

NOTE: "FAIR" INDICATES FEW OR NO CLOUDS BELOW 12,000 FEET WITH NO
SIGNIFICANT WEATHER AND/OR OBSTRUCTIONS TO VISIBILITY.


NDZ001>003-009>011-017-211600-
NORTHWEST NORTH DAKOTA

CITY           SKY/WX    TMP DP  RH WIND       PRES   REMARKS
WILLISTON      PTCLDY    15  13  91 CALM      29.47F
MINOT          CLEAR     15  13  91 E3        29.53F
MINOT AFB      CLEAR     12  12  99 SE6       29.52F WCI   3
$$

NDZ018>021-031>035-040>046-211600-
SOUTHWEST NORTH DAKOTA

CITY           SKY/WX    TMP DP  RH WIND       PRES   REMARKS
BISMARCK       CLEAR     18  16  92 SE6       29.59F WCI  10
DICKINSON      CLEAR     28  22  78 S13       29.46F WCI  17
GARRISON         N/A     19  16  88 CALM      29.53F
HETTINGER ARPT CLEAR     23  19  85 SE5       29.51F WCI  17
$$

NDZ004>008-012>016-024-026-027-054-211600-
NORTHEAST NORTH DAKOTA

CITY           SKY/WX    TMP DP  RH WIND       PRES   REMARKS
GRAND FORKS    CLOUDY    30  29  96 S14       29.69F FOG     WCI  19
GRND FRKS AFB  CLOUDY    29  29 100 S15       29.68F WCI  18
DEVILS LAKE    CLEAR     18  10  73 SE7       29.60S WCI   8
$$

NDZ022-023-025-028>030-036>039-047>053-211600-
SOUTHEAST NORTH DAKOTA

CITY           SKY/WX    TMP DP  RH WIND       PRES   REMARKS
FARGO          CLOUDY    32  28  85 S15G24    29.73F FOG
JAMESTOWN      FOG       27  24  89 S9        29.63F VSB 1/4 WCI  18
$$



USA.gov is the U.S. government's official web portal to all federal, state and local government web resources and services.